Location: Godiavel Galaoual
(15.2485°N, 12.6604°W)
Time: 12:43:38
(UTC+00:00)

LightSail 2 - Pass Details

Date: 07 June 2020
Orbit: 692 x 720 km, 24.0° (Epoch: 14 July)

Event Time Altitude Azimuth Distance (km) Brightness Sun altitude
Exits shadow 04:49:52 29° 287° (WNW) 1,291 6.1 -20.0°
Maximum altitude 04:52:34 85° 201° (SSW) 717 5.0 -19.4°
Drops below altitude 10° 04:57:45 10° 112° (ESE) 2,189 8.1 -18.4°
Sets 05:00:12 0° 112° (ESE) 3,110 9.0 -17.9°
